Regional Weather Roundup
Issued by NWS Northern Indiana

Home | Current Version | Previous Version | Text Only | Print | Product List | Glossary Off
Versions: 1 2 3 4 5 6 7 8 9 10 11 12 13 14 15 16 17 18 19 20 21 22 23 24 25 26 27 28 29 30 31 32 33 34 35 36 37 38 39 40 41 42 43 44 45 46 47 48 49 50

000
ASUS43 KIWX 291210
RWRIWX

KIWX WEATHER ROUNDUP
NATIONAL WEATHER SERVICE NORTHERN INDIANA
800 AM EDT WED JUL 29 2015

NOTE: "FAIR" INDICATES FEW OR NO CLOUDS BELOW 12,000 FEET WITH NO
SIGNIFICANT WEATHER AND/OR OBSTRUCTIONS TO VISIBILITY.

* THESE STATIONS ARE NOT UNDER NWS QUALITY CONTROL. THEY ALSO MAY NOT
  REPORT WEATHER SUCH AS PRECIPITATION OR FOG.

INZ001>027-291300-
NORTHERN INDIANA

CITY           SKY/WX    TMP DP  RH WIND       PRES   REMARKS
GARY*          CLOUDY    75  75 100 VRB5      29.95R
VALPARAISO     CLOUDY    76  73  91 W6        29.96R
6HR MIN TEMP:  73; 6HR MAX TEMP:  78; 6HR PCP: TRACE;

MICHIGAN CITY* CLOUDY    73  73 100 CALM      29.95S
LAPORTE*       CLOUDY    77  77 100 CALM      29.96S
6HR MIN TEMP:  73; 6HR MAX TEMP:  77;

KNOX*          CLOUDY    75  75 100 W5        29.95R
SOUTH BEND     CLOUDY    78  73  84 W3        29.96R
6HR MIN TEMP:  75; 6HR MAX TEMP:  80;

ELKHART*       CLOUDY    75  72  88 CALM      29.96S
GOSHEN         PTSUNNY   77  72  84 SW6       29.96S
6HR MIN TEMP:  72; 6HR MAX TEMP:  77;

MONTICELLO*    CLOUDY    74  74 100 SW5       29.97R
6HR MIN TEMP:  74; 6HR MAX TEMP:  76;

LOGANSPORT*    PTSUNNY   73  70  88 W5        29.98R FOG
ROCHESTER*     PTSUNNY   79  77  94 CALM      29.96F FOG
WARSAW*        PTSUNNY   77  72  83 W5        29.96S FOG
ANGOLA*        SUNNY     73  66  78 CALM      29.97S
FORT WAYNE     PTSUNNY   75  72  90 CALM      29.97S FOG
6HR MIN TEMP:  72; 6HR MAX TEMP:  76;

HUNTINGTON*    PTSUNNY   75  73  91 CALM      29.97R
6HR MIN TEMP:  73; 6HR MAX TEMP:  76;

PERU/GRISSOM   SUNNY     76  73  92 W2        29.96R
6HR MIN TEMP:  73; 6HR MAX TEMP:  76;

MARION*        PTSUNNY   74  73  98 S3        29.98S FOG
6HR MIN TEMP:  52; 6HR MAX TEMP:  89;


$$
INZ028>050-291300-
CENTRAL INDIANA

CITY           SKY/WX    TMP DP  RH WIND       PRES   REMARKS
LAFAYETTE      CLOUDY    73  72  96 CALM      29.96R
6HR MIN TEMP:  73; 6HR MAX TEMP:  75;

KOKOMO*        PTSUNNY   75  72  88 CALM      29.97S
6HR MIN TEMP:  72; 6HR MAX TEMP:  75;

MUNCIE*        PTSUNNY   77  72  84 S6        29.98S
6HR MIN TEMP:  71; 6HR MAX TEMP:  77;

INDIANAPOLIS   PTSUNNY   77  74  90 S7        29.96F FOG
6HR MIN TEMP:  75; 6HR MAX TEMP:  79;


$$
MIZ043>046-050>051-056>058-064>065-071>073-077>080-291300-
SOUTHWEST LOWER MICHIGAN

CITY           SKY/WX    TMP DP  RH WIND       PRES   REMARKS
BATTLE CREEK   MOSUNNY   74  65  73 S7        29.96S
6HR MIN TEMP:  72; 6HR MAX TEMP:  76;

BENTON HARBOR  CLOUDY    77  72  84 SW9       29.94R
6HR MIN TEMP:  74; 6HR MAX TEMP:  77;

COLDWATER*     MOSUNNY   72  65  80 CALM      29.97S
6HR MIN TEMP:  69; 6HR MAX TEMP:  72;

HILLSDALE*     SUNNY     73  68  86 S3        29.98S
6HR MIN TEMP:  69; 6HR MAX TEMP:  73;

HOLLAND        CLOUDY    75  69  81 S6        29.94R
6HR MIN TEMP:  73; 6HR MAX TEMP:  77;

GRAND RAPIDS   CLOUDY    75  66  73 SW8       29.94R
6HR MIN TEMP:  72; 6HR MAX TEMP:  75;

KALAMAZOO      MOSUNNY   75  67  76 S6        29.95F
6HR MIN TEMP:  71; 6HR MAX TEMP:  76;

STURGIS*       MOSUNNY   73  70  88 S3        29.96S
THREE RIVERS*  FAIR      74  68  82 S3        29.95F
6HR MIN TEMP:  70; 6HR MAX TEMP:  75;


$$
OHZ001>008-015>018-024>025-291300-
NORTHWEST OHIO

CITY           SKY/WX    TMP DP  RH WIND       PRES   REMARKS
WAUSEON*       FAIR      72  70  94 CALM      29.97S
DEFIANCE       PTSUNNY   74  67  78 CALM      29.97R
6HR MIN TEMP:  68; 6HR MAX TEMP:  74; 6HR PCP: TRACE;

FINDLAY        SUNNY     74  68  81 S6        29.97S
6HR MIN TEMP:  69; 6HR MAX TEMP:  74;

TOLEDO EXPRESS MOSUNNY   71  67  87 CALM      29.97R
6HR MIN TEMP:  66; 6HR MAX TEMP:  71;

TOLEDO METCALF MOSUNNY   73  67  81 CALM      29.97S
6HR MIN TEMP:  69; 6HR MAX TEMP:  73;

LIMA           SUNNY     74  70  87 S5        29.99R
6HR MIN TEMP:  68; 6HR MAX TEMP:  74;


$$
AND FOR LAKE MICHIGAN COASTAL AND OPEN LAKE BUOY OBSERVATIONS

STATION/POSITION TEMP    WIND        PRES    VSBY  WAVE
                 AIR SEA DIR/SP/G                  HT/PER
                 (F)     (DEG/KT/KT) (MB)    (MI)  (FT/S)
CALUMET HARBOR    75     230/  3/  6   N/A
MICHIGAN CITY     75     230/  7/  8   N/A
BURNS HARBOR      75     260/  5/  7 1014.2R
SAINT JOSEPH      75     180/  6/  8 1014.9R
4 MI NW BRIDGMAN  75 75  280/ 10/ 10   N/A           1/ 2
MICHIGAN CITY     75 74  260/  6/  6   N/A           1/ 2

$$
&&



USA.gov is the U.S. government's official web portal to all federal, state and local government web resources and services.